TimeCST,TemperatureF,Dew PointF,Humidity,Sea Level PressureIn,VisibilityMPH,Wind Direction,Wind SpeedMPH,Gust SpeedMPH,PrecipitationIn,Events,Conditions,WindDirDegrees,DateUTC
12:17 AM,33.8,30.2,87,29.72,8.0,West,10.4,-,N/A,,Overcast,260,2012-12-10 06:17:00
12:30 AM,32.0,28.4,87,29.73,3.0,West,13.8,-,0.00,Snow,Light Snow,260,2012-12-10 06:30:00
12:37 AM,32.0,28.4,87,29.72,2.0,WSW,11.5,-,0.00,Snow,Light Snow,250,2012-12-10 06:37:00
12:54 AM,32.0,28.4,87,29.72,5.0,West,11.5,-,0.00,,Overcast,260,2012-12-10 06:54:00
12:56 AM,32.0,28.0,85,29.73,6.0,West,13.8,-,0.00,,Overcast,260,2012-12-10 06:56:00
1:43 AM,30.2,28.4,93,29.72,4.0,West,8.1,-,N/A,,Overcast,270,2012-12-10 07:43:00
1:56 AM,30.9,28.0,89,29.73,5.0,West,11.5,-,N/A,,Overcast,270,2012-12-10 07:56:00
2:43 AM,30.2,28.4,93,29.73,2.5,West,9.2,-,0.00,Snow,Light Snow,270,2012-12-10 08:43:00
2:52 AM,30.2,28.4,93,29.73,3.0,West,8.1,-,0.00,Snow,Light Snow,270,2012-12-10 08:52:00
2:56 AM,30.9,28.9,92,29.74,3.0,West,8.1,-,0.00,Snow,Light Snow,270,2012-12-10 08:56:00
3:56 AM,30.9,28.9,92,29.74,4.0,West,6.9,-,0.00,,Overcast,260,2012-12-10 09:56:00
4:14 AM,30.2,28.4,93,29.74,5.0,West,6.9,-,N/A,,Overcast,260,2012-12-10 10:14:00
4:56 AM,32.0,28.9,88,29.75,8.0,WNW,8.1,17.3,N/A,,Overcast,300,2012-12-10 10:56:00
5:39 AM,32.0,28.4,87,29.77,6.0,NW,8.1,-,N/A,,Overcast,310,2012-12-10 11:39:00
5:56 AM,32.0,28.0,85,29.77,9.0,NW,9.2,-,N/A,,Overcast,320,2012-12-10 11:56:00
6:56 AM,32.0,28.0,85,29.78,9.0,North,8.1,-,N/A,,Overcast,350,2012-12-10 12:56:00
7:56 AM,30.9,26.1,82,29.82,6.0,North,10.4,-,0.00,Snow,Light Snow,360,2012-12-10 13:56:00
8:56 AM,30.9,26.1,82,29.85,10.0,North,8.1,-,0.00,,Overcast,350,2012-12-10 14:56:00
9:56 AM,30.9,25.0,79,29.86,10.0,North,6.9,-,N/A,,Overcast,360,2012-12-10 15:56:00
10:36 AM,30.2,24.8,80,29.86,10.0,NNW,6.9,-,N/A,,Overcast,340,2012-12-10 16:36:00
10:47 AM,30.2,24.8,80,29.86,10.0,NNW,5.8,-,N/A,,Overcast,340,2012-12-10 16:47:00
10:56 AM,30.9,24.1,76,29.86,10.0,NNW,8.1,-,N/A,,Overcast,330,2012-12-10 16:56:00
11:13 AM,30.2,24.8,80,29.85,10.0,NW,8.1,-,N/A,,Overcast,310,2012-12-10 17:13:00
11:56 AM,30.9,23.0,72,29.86,10.0,NNW,5.8,-,N/A,,Overcast,330,2012-12-10 17:56:00
12:08 PM,32.0,24.8,75,29.85,10.0,NNW,4.6,-,N/A,,Overcast,330,2012-12-10 18:08:00
12:18 PM,32.0,23.0,69,29.85,10.0,NNW,8.1,-,N/A,,Overcast,340,2012-12-10 18:18:00
12:56 PM,30.9,23.0,72,29.85,10.0,NW,5.8,-,N/A,,Overcast,310,2012-12-10 18:56:00
1:56 PM,30.0,25.0,82,29.86,8.0,WSW,5.8,-,N/A,,Overcast,250,2012-12-10 19:56:00
2:05 PM,30.2,24.8,80,29.84,8.0,West,10.4,-,N/A,,Overcast,270,2012-12-10 20:05:00
2:56 PM,30.0,24.1,79,29.86,8.0,WNW,10.4,-,N/A,,Overcast,290,2012-12-10 20:56:00
3:56 PM,30.0,24.1,79,29.88,10.0,NW,6.9,-,N/A,,Overcast,310,2012-12-10 21:56:00
4:39 PM,28.4,23.0,80,29.89,10.0,West,8.1,-,N/A,,Overcast,280,2012-12-10 22:39:00
4:56 PM,28.9,23.0,78,29.91,10.0,West,6.9,-,N/A,,Overcast,280,2012-12-10 22:56:00
5:56 PM,28.0,23.0,81,29.92,10.0,West,4.6,-,N/A,,Overcast,270,2012-12-10 23:56:00
6:40 PM,28.4,21.2,74,29.92,9.0,WNW,8.1,-,N/A,,Overcast,290,2012-12-11 00:40:00
6:56 PM,27.0,21.9,81,29.94,8.0,West,5.8,-,N/A,,Overcast,270,2012-12-11 00:56:00
7:56 PM,27.0,21.9,81,29.94,5.0,West,5.8,-,0.00,Snow,Light Snow,270,2012-12-11 01:56:00
8:22 PM,26.6,21.2,80,29.93,4.0,West,4.6,-,0.00,Snow,Light Snow,260,2012-12-11 02:22:00
8:56 PM,26.1,21.9,84,29.94,5.0,West,6.9,-,0.00,Snow,Light Snow,270,2012-12-11 02:56:00
9:25 PM,26.6,21.2,80,29.93,4.0,West,6.9,-,0.00,Snow,Light Snow,270,2012-12-11 03:25:00
9:56 PM,26.1,21.9,84,29.94,4.0,West,5.8,-,0.00,Snow,Light Snow,280,2012-12-11 03:56:00
10:05 PM,26.6,21.2,80,29.93,4.0,West,5.8,-,0.00,Snow,Light Snow,270,2012-12-11 04:05:00
10:17 PM,24.8,21.2,86,29.93,4.0,West,4.6,-,0.00,Snow,Light Snow,270,2012-12-11 04:17:00
10:56 PM,25.0,21.0,85,29.96,5.0,West,6.9,-,0.00,,Overcast,270,2012-12-11 04:56:00
11:56 PM,24.1,21.0,88,29.96,5.0,SSW,8.1,-,0.00,,Overcast,210,2012-12-11 05:56:00